Location: Hungerford
(51.4167°N, 1.5167°W)
Time: 16:55:18
(UTC+00:00)

MetOp-A - Pass Details

Date: 18 September 2020
Orbit: 820 x 821 km, 98.5° (Epoch: 31 October)

Event Time Altitude Azimuth Distance (km) Brightness Sun altitude
Exits shadow 20:03:46 10° 171° (S) 2,400 6.2 -17.5°
Maximum altitude 20:09:04 73° 256° (WSW) 863 4.3 -18.3°
Drops below altitude 10° 20:14:27 10° 342° (NNW) 2,431 7.2 -19.0°
Sets 20:16:50 0° 344° (NNW) 3,368 8.0 -19.3°
